Location: Igon
(43.1667°N, 0.2333°W)
Time: 02:38:23
(UTC+00:00)

SKYMED 3 - Pass Details

Date: 13 April 2021
Orbit: 621 x 624 km, 97.9° (Epoch: 18 May)

Event Time Altitude Azimuth Distance (km) Brightness Sun altitude
Rises 19:14:51 0° 358° (N) 2,914 8.3 -6.6°
Reaches altitude 10° 19:17:31 10° 341° (NNW) 2,002 7.8 -7.1°
Maximum altitude 19:20:39 20° 295° (WNW) 1,455 7.8 -7.6°
Drops below altitude 10° 19:23:47 10° 248° (WSW) 1,990 7.9 -8.2°
Sets 19:26:26 0° 232° (SW) 2,891 8.4 -8.6°
